Location: Alafon
(8.4500°N, 4.2333°E)
Time: 22:24:03
(UTC+00:00)

Vanguard 2 - Pass Details

Date: 12 August 2021
Orbit: 553 x 2937 km, 32.9° (Epoch: 26 September)

Event Time Altitude Azimuth Distance (km) Brightness Sun altitude
Rises 23:06:09 0° 260° (W) 5,454 12.0 -64.7°
Enters shadow 23:07:13 - 262° (W) 5,132 11.8 -64.8°
Reaches altitude 10° 23:10:58 10° 270° (W) 4,003 - -65.1°
Maximum altitude 23:19:00 28° 324° (NW) 2,126 - -65.8°
Drops below altitude 10° 23:24:24 10° 23° (NNE) 2,619 - -66.2°
Sets 23:26:54 0° 36° (NE) 3,316 - -66.3°
